Regional Weather Roundup
Issued by NWS Wakefield, VA

Home | Current Version | Previous Version | Text Only | Print | Product List | Glossary On
Versions: 1 2 3 4 5 6 7 8 9 10 11 12 13 14 15 16 17 18 19 20 21 22 23 24 25 26 27
000
ASUS41 KAKQ 211210
RWRAKQ

REGIONAL WEATHER ROUNDUP
NATIONAL WEATHER SERVICE WAKEFIELD VA
800 AM EDT MON APR 21 2014

Note: "fair" indicates few or no clouds below 12,000 feet with no
significant weather and/or obstructions to visibility. * = Denotes
station may not report precipitation (e.g., rain,snow,etc.),
thunder or fog.

VAZ042-051-052>054-056-211300-
NORTHERN VIRGINIA

CITY           SKY/WX    TMP DP  RH WIND       PRES   REMARKS
WASH NATIONAL  PTSUNNY   48  30  49 NE6       30.23S
DULLES         MOSUNNY   42  36  79 CALM      30.22F
FORT BELVOIR   SUNNY     45  32  61 NW3       30.23S
QUANTICO       MOSUNNY   47  30  51 N7        30.23F
FREDERICKSBRG* SUNNY     45  34  65 N3        30.21F
STAFFORD*      SUNNY     44  35  69 N3        30.25F
WARRENTON      SUNNY     44  40  85 NE5       30.20F
CULPEPER*      SUNNY     41  41 100 CALM      30.22F
MANASSAS*      NOT AVBL
LEESBURG*      SUNNY     41  37  87 CALM      30.23S
WINCHESTER     SUNNY     43  36  75 CALM      30.19F
$$

VAZ048-049-060>072-079>083-211300-
CENTRAL AND SOUTH CENTRAL VIRGINIA...AND NORTH CENTRAL NORTH CAROLINA

CITY           SKY/WX    TMP DP  RH WIND       PRES   REMARKS
RICHMOND       MOSUNNY   45  30  55 N7        30.20S
CHESTERFIELD*  NOT AVBL
HANOVER        SUNNY     43  31  62 VRB7      30.22R
TAPPAHANNOCK*  SUNNY     46  33  61 CALM      30.20S
CHARLOTTSVILLE SUNNY     42  34  73 CALM      30.20F
ORANGE*        SUNNY     41  34  75 CALM      30.22F
LOUISA*        SUNNY     43  30  61 NE5       30.19F
FARMVILLE*     SUNNY     43  30  61 NE6       30.19S
SOUTH HILL*    SUNNY     43  30  61 N7        30.23S
ROANOKE RAPIDS SUNNY     45  36  70 N8        30.18S
RALEIGH        MOSUNNY   45  34  65 NE7       30.17S
$$

VAZ088>098-211300-
SOUTHEAST VIRGINIA

CITY           SKY/WX    TMP DP  RH WIND       PRES   REMARKS
NORFOLK        CLOUDY    47  43  86 N15       30.15S
VIRGINIA BEACH CLOUDY    47  44  90 N13       30.14S FOG
NORFOLK NAVAL  CLOUDY    49  44  83 N16       30.17S
WEST POINT*    SUNNY     45  36  70 CALM      30.21S
NEWPORT NEWS   CLOUDY    49  42  77 N6        30.17S
LANGLEY AFB    CLOUDY    48  48  98 NE13      30.17S
FORT EUSTIS    CLOUDY    46  42  87 VRB6      30.16S
WILLIAMSBURG*  SUNNY     45  41  87 CALM      30.19S
FRANKLIN*      MOSUNNY   46  41  81 N5        30.17S
WAKEFIELD      SUNNY     43  35  73 NE5       30.18S
$$

VAZ020-022-025-037-045-211300-
WESTERN AND SOUTHWEST VIRGINIA

CITY           SKY/WX    TMP DP  RH WIND       PRES   REMARKS
STAUNTON*      SUNNY     36  32  87 CALM      30.20F
HOT SPRINGS VA SUNNY     45  32  61 W7        30.21S
LYNCHBURG      SUNNY     48  35  60 NE3       30.20S
DANVILLE       SUNNY     45  34  65 NE5       30.20S
MARTINSVILLE   SUNNY     41  37  88 CALM      30.23R
ROANOKE        SUNNY     47  36  65 CALM      30.21S
BLACKSBURG     SUNNY     45  37  76 CALM      30.21F
DUBLIN*        SUNNY     42  37  81 CALM      30.21S
MARION*        MOSUNNY   38  31  76 CALM      30.22S
HILLSVILLE*    MOSUNNY   43  30  61 CALM      30.22S
RICHLANDS*     SUNNY     53  31  42 CALM      30.17S
WISE*          SUNNY     52  30  43 S5        30.18S
ABINGDON*      MOSUNNY   49  32  51 E5        30.18S
$$

MDZ021>025-VAZ099-100-211300-
SOUTHERN MARYLAND AND THE DELMARVA PENINSULA

CITY           SKY/WX    TMP DP  RH WIND       PRES   REMARKS
PATUXENT RIVER MOSUNNY   48  37  65 N12       30.20S
BAY BRIDGE APT SUNNY     45  30  57 NE5       30.22F
LEONARDTOWN    SUNNY     45  36  70 N5        30.21S
DOVER          SUNNY     42  39  87 N9        30.17S
GEORGETOWN     SUNNY     47  39  74 NE8       30.20S
EASTON         SUNNY     45  34  65 NE9       30.24F
CAMBRIDGE      SUNNY     45  34  65 N7        30.20S
SALISBURY      SUNNY     45  38  76 N6        30.19S
OCEAN CITY     SUNNY     49  41  74 N12       30.18R
WALLOPS ISLAND SUNNY     48  42  80 NE10      30.18R
ACCOMACK*      SUNNY     43  37  81 NE3       30.17S
$$

NCZ012>017-030>032-211300-
EASTERN NORTH CAROLINA

CITY           SKY/WX    TMP DP  RH WIND       PRES   REMARKS
ELIZABETH CITY CLOUDY    50  46  86 N16       30.11S
AHOSKIE*       SUNNY     44  38  78 N7        30.16F
EDENTON*       CLOUDY    50  47  89 N12G17    30.11R
CURRITUCK*     CLOUDY    47  46  94 N16       30.13R FOG
KILL DEVIL HLS FOG       47  47  99 N12G23    30.06S VSB 1/2
MANTEO         CLOUDY    48  48  99 N21G29    30.07R FOG
CAPE HATTERAS  LGT RAIN  50  50 100 N12G28    30.01R FOG
GOLDSBORO      CLOUDY    48  41  76 N10       30.11S
WASHINGTON     CLOUDY    49  45  85 N10       30.11S
GREENVILLE     CLOUDY    48  43  81 N9        30.14S
NEW BERN       CLOUDY    53  47  79 N13G20    30.09R
WILMINGTON     CLOUDY    52  45  77 N14       30.06R
$$

VAZ048-211300-
ELSEWHERE

CITY           SKY/WX    TMP DP  RH WIND       PRES   REMARKS
HARRISBURG PA  MOSUNNY   45  32  60 E3        30.22F
BALTIMORE      MOSUNNY   44  29  55 CALM      30.21F
ANNAPOLIS      SUNNY     47  31  53 NE5       30.22S
ANDREWS AFB    SUNNY     44  32  61 NE6       30.21S
WILMINGTON DE  SUNNY     44  27  51 N3        30.23S
PHILADELPHIA   MOSUNNY   46  29  51 NE6       30.23S
WILDWOOD NJ*   SUNNY     43  37  81 NE8       30.21S
ATLANTIC CITY  SUNNY     42  38  85 NE7       30.21S
HENDERSON NC   SUNNY     42  32  69 N6        30.18F
GREENSBORO     MOSUNNY   46  31  55 NE7       30.18R
ROCKY MOUNT    CLOUDY    46  37  71 N12       30.16S
FAYETTEVILLE   SUNNY     49  38  65 N14       30.13S
CHARLOTTE      MOSUNNY   49  38  65 N8        30.19R
$$

VAZ100-211300-
MARINE

STATION/POSITION TIME  TEMP    WIND        PRES    WAVE   SWELL
                       AIR SEA DIR/SP/G            HT/PER HT/PER
                 (UTC) (F)     (DEG/KT/KT) (MB)    (FT/S) (FT/S)
44066 TX TWR #4  1200   45 44   40/ 10/ 12 1021.8S   5/ 8   5/ 8
CAPE MAY NJ      1200   44 53   50/  5/  9 1022.1F
LEWES DE         1200   45 49   30/ 10/ 11 1021.9S
15NM E FENWICK I 1200   46 46              1021.6R   8/10
OCEAN-CITY-INLET 1200   47 47   30/  8/ 14 1021.5F
WACHAPREAGUE VA  1200   45 52  360/  6/  9 1021.0S
THOMAS POINT MD  1200   45 54   20/ 12/ 13 1023.5F
GOOSES REEF MD   1200   46      40/ 10/ 12 1024.5R
COVE POINT MD    1200   46      20/  9/ 11 1022.7F
SOLOMONS ISLAND  1200      52                N/A
BISHOPS HEAD MD  1200   45 52   10/  9/ 13 1021.9S
PINEY POINT MD   1200           50/ 11/ 13   N/A
POTOMAC MD       1200   47      40/ 14/ 17 1021.5R
CAMBRIDGE MD     1200   43 55   30/  5/  7 1022.4F
LEWISETTA VA     1200   47 53   20/  7/ 10 1022.2F
RAPPAHANNOCK LGT 1200           20/ 13/ 15 1022.0S
STINGRAY PT      1200   47      40/ 12/ 14 1022.0R
YORK RVR RNG VA  1200   48      30/ 15/ 19 1020.7F
YORKTOWN VA      1200   45 54  340/  8/ 10 1021.5F
JAMESTOWN VA     1200   44      10/  4/  8   N/A
DOMINION TERM VA 1200   48      10/  8/ 13 1021.2F
KIPTOPEKE VA     1200      52   40/ 11/ 15   N/A
CHES BAY BRIDGE  1200   45 51  360/ 13/ 15 1021.1R
CAPE HENRY VA    1200   45      10/ 17/ 20   N/A
CHESAPEAKE LGHT  1100   45      30/ 25/ 26 1020.1R
WILLOUBY STN VA  1200   47      10/ 14/ 18 1020.1S
S CRANEY ISL VA  1200          340/ 15/ 18 1020.9S
CAPE HENRY BUOY  1200      46                N/A     8/11   3/11
1ST LANDING BUOY 1200      47                N/A     8/10   7/10
64NM E OF VA BCH 1200   49 48   10/ 19/ 25 1017.3R  12/10  10/10
DUCK PIER NC     1200   47 49   10/ 20/ 24 1017.5R
44100 DUCK FRF   1200      48                N/A    10/11   3/11
44056 DUCK FRF   1200      48                N/A     8/11   3/11
OREGON INLET NC  1200   49 50  350/ 17/ 25 1017.3R
HATTERAS NC      1200   53 54  360/ 19/ 27 1016.0F
DIAMOND SHLS NC  1200   58 74  360/ 27/ 35 1013.8R  12/11   8/11
CAPE LOOKOUT NC  1100   53     360/ 24/ 30 1015.3R
FRYING PAN SHLS  1200   57 67   10/ 25/ 31 1015.0F   9/ 8   5/10
$$



USA.gov is the U.S. government's official web portal to all federal, state and local government web resources and services.